Location: Alta
(39.2070°N, 120.8111°W)
Time: 07:59:54
(UTC+00:00)

COSMOS 2251 DEB - Pass Details

Date: 16 December 2023
Orbit: 644 x 776 km, 74.0° (Epoch: 20 February)

Event Time Altitude Azimuth Distance (km) Brightness Sun altitude
Exits shadow 12:49:24 - 11° (N) 2,531 ? -27.5°
Reaches altitude 10° 12:51:26 10° 30° (NNE) 2,071 ? -27.1°
Drops below altitude 10° 12:55:29 10° 82° (E) 2,048 ? -26.4°
Enters shadow 14:00:36 -59° 334° (NNW) 11,857 ? -14.2°
Maximum altitude 14:34:50 65° 254° (WSW) 712 ? -8.0°
